SCP
2 2 2 1 1 1 0 0 0 0 0 0 0 0 0 0 1 1 1 0 0 0 0 0 0 0 0 0 0 0 0 0 0 0 0 0 0 0 0 0 0 0 0
2 2 1 1 1 1 1 1 1 0 0 0 0 0 0 0 1 1 1 0 0 0 0 0 0 0 0 0 0 0 0 0 0 0 0 0 0 0 0 0 0 0 0
2 1 1 1 1 1 1 1 1 1 1 1 1 1 0 0 1 1 1 0 0 0 0 0 0 0 0 0 0 0 0 0 0 0 0 0 0 0 0 0 0 0 0
2 1 1 1 2 1 1 1 1 1 1 1 1 1 1 1 1 1 1 1 0 0 0 0 0 0 0 0 0 0 0 0 0 0 0 0 0 0 0 0 0 0 0
2 2 2 2 2 2 2 1 1 1 1 1 1 1 1 1 1 1 1 1 1 0 0 0 0 0 0 0 0 0 0 0 0 0 0 0 0 0 0 0 0 0 0
2 2 2 2 2 2 2 2 1 1 1 1 1 1 1 1 1 1 1 1 1 0 0 0 0 0 0 0 0 0 0 0 1 1 1 0 1 1 1 0 0 0 0
2 2 2 2 2 2 2 2 2 1 1 1 1 1 1 1 1 1 1 1 1 1 0 0 0 0 0 0 0 0 0 0 1 1 1 1 1 1 1 0 0 0 0
3 3 3 3 3 2 2 2 2 2 2 2 2 1 1 1 1 1 1 1 1 1 1 0 0 0 0 0 0 0 0 1 1 1 1 1 1 1 1 1 1 0 0
3 3 3 3 3 3 2 2 2 2 2 2 2 1 1 1 1 1 1 1 1 1 1 1 0 0 0 0 0 0 0 1 1 1 1 1 1 1 1 1 1 1 1
4 4 4 3 3 3 3 2 2 2 2 2 2 2 1 1 1 1 1 1 1 1 1 1 1 1 0 0 0 0 1 1 1 1 1 1 1 1 1 1 1 1 1
6 6 5 5 4 3 3 3 2 2 2 2 2 2 2 2 1 1 1 2 2 1 1 1 1 1 1 1 1 1 1 1 1 1 1 1 2 2 1 1 1 1 1
6 6 6 5 4 4 4 3 3 2 3 3 3 3 3 2 2 3 4 3 2 2 1 1 1 1 1 1 1 1 1 1 1 1 1 2 2 2 1 1 1 1 1
5 5 4 4 4 4 4 3 3 3 3 3 3 3 3 3 2 4 6 4 2 2 1 1 1 1 1 1 1 1 1 1 1 1 2 2 2 2 2 1 1 1 1
4 4 3 4 4 4 4 4 3 3 3 3 4 4 4 3 3 4 5 4 2 2 1 1 2 1 1 1 1 1 1 1 1 1 2 2 3 2 2 1 1 1 1
4 4 4 4 4 5 5 5 4 4 3 3 4 4 4 4 4 3 3 3 2 2 2 2 2 2 2 2 1 1 1 1 1 1 2 2 3 3 2 2 1 1 2
5 5 6 7 6 6 6 5 5 4 4 3 4 4 4 4 4 4 4 3 2 2 2 2 2 2 2 2 1 1 1 1 1 2 2 2 2 2 2 2 2 2 2
5 7 9 9 8 7 6 5 5 4 4 4 4 4 4 4 4 5 5 4 3 2 2 2 2 2 1 1 1 1 1 1 2 2 2 2 2 2 2 2 2 2 2
7 8 9 9 8 7 5 5 5 5 4 4 4 4 4 4 4 6 6 4 3 3 3 2 2 2 2 2 2 1 1 2 2 2 2 2 2 2 2 2 2 2 2
8 8 8 8 7 6 5 5 5 5 5 5 5 5 5 5 6 6 6 4 4 3 3 2 2 2 2 2 2 2 2 2 2 2 2 2 2 2 2 2 1 2 2
8 7 7 7 7 6 6 6 6 6 6 5 5 5 6 6 6 6 5 4 4 4 3 2 2 2 2 2 2 1 1 2 2 2 2 2 2 2 2 2 1 1 1
6 6 6 6 6 6 6 7 7 7 7 7 8 8 7 6 5 5 4 4 4 3 3 2 2 2 2 2 2 2 2 2 2 2 2 2 2 2 3 2 2 2 2
6 5 5 6 6 6 6 7 7 7 8 10 11 11 8 6 5 4 4 4 3 3 2 2 2 3 3 3 2 2 2 2 2 2 2 2 2 2 2 3 2 2 2
5 5 5 5 5 5 6 6 7 8 9 11 13 12 9 7 6 5 4 3 2 2 2 2 2 2 3 3 3 2 2 2 2 2 2 2 2 2 2 2 2 2 2
5 5 4 5 5 6 6 6 7 8 8 10 12 10 7 6 6 5 4 3 3 2 2 2 2 2 2 2 2 2 2 2 2 2 2 2 2 2 2 2 2 3 3
5 5 5 5 6 6 6 6 6 6 6 7 8 7 5 4 4 4 4 3 3 2 2 2 2 2 2 2 2 2 2 2 2 2 2 1 1 2 2 2 2 3 3
5 5 5 5 5 6 5 5 5 4 4 5 5 4 3 2 2 3 3 3 3 2 2 2 2 2 2 2 2 2 2 2 2 2 2 1 1 1 2 2 2 2 2
Wind_Speed
17 16 15 14 14 14 13 14 13 13 12 12 12 11 11 12 12 13 12 12 11 11 11 10 10 9 9 10 11 12 12 12 12 13 14 14 13 11 10 9 10 11 13
20 16 15 14 14 14 14 14 13 13 12 12 11 11 11 11 11 11 11 11 11 11 11 10 10 9 9 9 9 9 9 9 9 11 12 12 12 11 10 11 12 10 12
19 16 14 13 14 14 14 14 13 13 12 12 11 10 10 10 10 10 10 10 10 10 10 10 9 9 9 9 8 8 7 6 6 6 8 8 10 11 11 13 14 13 12
18 15 14 14 14 14 14 14 14 13 13 12 11 10 10 10 9 9 9 9 9 9 9 9 9 9 8 8 7 6 4 3 3 4 3 5 8 11 10 11 11 11 10
17 16 15 14 14 14 14 14 14 13 13 12 11 10 9 9 8 8 8 9 8 8 8 8 8 8 7 7 6 4 2 2 3 6 2 6 8 10 10 9 9 9 9
18 17 15 14 14 13 13 14 14 13 12 12 11 10 9 8 8 7 8 8 7 7 7 7 7 6 6 5 4 3 2 4 6 5 2 7 9 10 10 9 8 8 7
18 16 15 13 13 13 13 13 13 12 11 11 10 9 8 8 7 7 7 7 6 6 6 6 5 5 4 4 3 2 3 5 7 5 2 7 10 12 10 8 7 7 7
17 17 14 14 13 12 12 12 12 11 11 10 10 9 8 7 7 6 6 6 6 5 5 5 5 4 3 3 2 3 5 8 6 3 5 8 11 12 10 8 7 6 6
17 16 13 12 12 12 11 11 11 11 10 10 9 9 8 8 7 7 6 6 6 5 5 5 4 4 3 3 3 5 6 8 8 3 4 7 11 12 10 8 7 6 6
14 14 12 12 11 10 10 11 10 10 10 9 9 9 9 9 8 8 8 6 6 6 5 5 5 4 4 5 5 6 7 8 7 3 2 7 11 11 10 8 7 6 6
12 11 10 10 10 10 10 10 9 9 8 8 8 9 9 7 8 8 8 9 7 7 6 6 6 6 6 7 8 8 7 5 4 1 2 11 12 11 10 8 7 6 6
11 9 8 8 7 7 8 8 6 6 6 6 6 7 6 5 5 7 10 10 9 8 7 8 8 7 7 6 8 9 5 7 4 2 5 13 12 11 10 8 8 7 7
10 7 7 6 5 5 5 5 3 3 4 5 4 5 4 3 2 4 5 6 6 7 6 6 7 6 6 4 3 5 6 4 1 2 6 12 12 11 10 8 8 8 8
9 8 7 6 5 5 5 4 2 2 2 2 2 2 2 1 1 2 2 4 4 3 3 3 3 5 4 3 4 4 4 2 1 2 5 11 11 10 9 9 8 8 8
9 7 7 5 6 5 4 2 2 1 1 1 1 1 2 1 1 0 0 1 2 2 3 2 3 3 2 2 2 3 2 2 1 1 3 9 10 9 9 9 9 8 8
9 7 7 5 5 5 3 2 1 1 1 1 2 1 1 1 1 1 1 0 0 0 1 1 2 1 1 1 2 3 3 2 1 1 2 5 8 9 8 8 9 8 8
8 8 6 6 5 4 3 2 1 0 1 1 2 2 1 1 1 1 1 0 0 0 1 1 2 1 2 2 2 2 1 2 1 1 1 1 4 7 8 8 7 7 8
8 7 5 5 5 4 2 1 1 1 1 1 1 2 1 0 2 1 1 1 1 1 0 0 1 1 2 2 2 2 1 1 1 1 1 1 1 2 5 8 7 7 8
8 6 5 5 4 3 3 2 1 1 1 1 1 2 1 0 1 1 1 1 1 1 1 2 0 1 2 2 2 2 2 1 2 2 2 2 1 1 2 5 8 8 8
7 6 5 5 4 2 2 1 1 2 2 2 2 2 2 1 1 1 1 1 1 1 1 2 1 1 2 2 3 3 2 2 1 1 2 2 1 2 2 2 3 4 6
7 6 5 4 3 2 1 1 1 1 1 1 2 3 2 1 1 1 1 1 1 1 2 3 2 2 2 2 2 2 2 3 2 2 2 2 2 2 1 1 1 1 2
7 6 5 4 3 2 2 1 0 0 0 1 2 2 2 1 1 1 1 1 1 1 2 2 2 2 2 2 2 2 2 1 1 2 1 2 2 2 2 2 1 1 0
7 6 6 5 4 3 2 1 1 1 0 1 1 1 2 1 1 2 1 1 1 2 2 2 2 3 2 2 2 2 2 1 0 0 1 0 1 2 2 2 3 2 1
7 7 6 5 5 4 3 3 2 1 1 1 1 1 1 1 1 2 1 1 1 2 2 2 1 2 2 3 3 3 3 1 1 0 0 1 2 2 2 2 2 2 3
8 7 6 5 5 5 4 5 4 3 2 2 2 1 1 0 0 2 2 2 2 2 2 2 2 2 2 3 3 2 2 2 3 2 2 1 1 2 2 2 2 3 3
8 7 6 6 5 4 5 5 5 4 3 3 3 2 1 1 0 2 2 2 2 2 2 2 2 3 2 3 3 2 2 2 2 2 2 2 1 1 2 2 2 3 3
Wind_Direction
118 121 123 128 134 136 135 132 129 126 123 118 114 108 102 97 95 95 96 97 98 101 103 101 99 94 86 80 78 79 80 82 85 88 89 88 86 84 84 92 103 92 95
118 121 121 128 134 137 137 136 134 131 128 125 122 117 110 105 101 99 99 100 100 102 103 103 102 100 96 93 89 89 90 93 98 105 108 100 92 83 77 72 84 98 99
117 124 124 128 133 137 138 137 136 135 133 131 128 123 117 111 107 105 103 103 103 104 105 105 105 104 103 102 101 100 102 107 116 133 145 120 104 91 85 85 93 101 100
124 131 124 128 132 135 137 138 138 139 138 137 133 129 125 120 115 111 109 107 106 106 107 108 108 108 108 109 108 109 117 130 161 205 208 124 114 104 98 96 100 103 103
124 118 119 126 129 133 137 140 141 142 142 141 139 135 131 126 122 119 117 114 111 111 112 112 112 113 113 112 112 120 151 230 255 256 244 102 102 116 111 107 107 107 107
121 118 121 124 127 132 137 141 143 144 144 145 143 140 136 131 128 125 122 120 119 118 117 117 117 118 119 118 123 144 221 273 282 264 171 121 117 125 121 118 117 115 115
120 119 123 122 126 131 137 140 142 144 145 145 145 143 140 136 134 132 129 128 127 126 125 123 124 128 130 136 153 210 259 281 274 287 112 112 124 133 131 130 129 127 126
118 119 122 123 127 131 136 138 141 143 145 145 146 145 144 142 140 140 139 139 139 138 138 137 140 146 152 166 203 250 274 286 286 308 101 112 132 136 138 139 139 142 140
119 123 132 134 134 133 133 136 139 142 144 146 148 150 152 154 156 157 155 154 156 156 158 158 163 172 184 202 229 257 274 285 293 288 124 120 139 141 143 145 148 154 155
120 126 135 142 142 146 143 141 142 145 148 152 156 162 165 170 176 177 174 171 171 172 175 177 186 197 210 221 234 251 269 284 269 271 109 132 146 147 150 156 161 166 167
119 124 135 139 146 153 148 143 147 151 157 162 170 177 180 188 188 189 187 168 181 186 191 194 200 210 220 226 233 242 257 255 248 198 130 141 152 154 156 164 171 178 181
124 131 135 135 146 152 141 139 159 168 168 190 182 183 201 211 199 185 160 168 183 194 203 209 214 218 227 227 222 227 243 245 245 176 151 151 156 158 162 172 182 188 192
128 125 122 124 130 125 119 143 162 167 164 206 196 189 212 221 194 152 155 166 184 197 208 203 213 227 228 232 208 203 232 246 207 159 147 156 157 161 167 176 190 199 201
123 121 113 116 105 107 118 138 140 142 152 195 165 188 223 244 230 167 171 171 181 197 208 185 217 228 237 242 238 228 244 241 166 128 148 158 159 165 173 184 194 201 202
122 115 109 107 104 97 92 106 118 111 140 165 121 201 251 240 251 143 154 152 189 191 185 195 229 244 251 261 286 286 288 311 347 111 141 161 164 171 179 190 197 202 203
114 111 106 99 97 95 98 93 104 154 175 191 156 172 264 294 318 5 252 173 176 192 159 207 264 264 273 299 289 297 304 315 333 62 154 166 173 180 185 193 201 207 208
113 110 109 113 99 93 94 96 109 83 146 164 143 131 141 322 317 316 303 326 343 259 177 176 288 296 250 254 255 272 298 302 297 327 191 172 177 188 193 195 200 206 209
108 100 97 100 107 106 98 78 74 51 62 73 105 106 108 202 284 298 321 355 319 309 329 229 259 297 295 287 280 284 282 261 258 250 242 204 194 192 194 198 203 206 208
103 105 101 86 88 93 100 100 95 90 76 72 86 91 95 258 265 296 295 337 285 289 294 276 184 253 277 279 276 255 253 245 231 232 223 228 208 186 188 192 203 207 209
108 106 106 103 82 72 90 104 100 92 96 78 75 68 74 51 345 329 262 264 261 263 274 273 253 233 247 256 276 276 256 247 227 219 223 213 181 203 207 197 192 209 209
111 108 102 95 93 86 73 61 83 78 83 87 93 78 53 31 352 287 337 278 258 242 252 257 235 232 234 228 256 272 259 239 218 212 208 199 190 197 175 158 151 150 196
119 116 112 101 94 84 72 59 75 73 98 102 76 88 76 23 313 286 80 298 309 282 257 251 244 246 249 228 241 254 239 237 221 219 198 193 188 171 151 136 122 117 119
119 108 99 87 82 65 56 66 56 89 0 91 85 95 64 21 346 341 345 342 318 285 276 271 251 243 257 264 245 241 242 223 64 237 239 194 118 95 84 75 79 69 65
112 104 94 85 73 55 43 42 35 55 52 42 47 60 59 17 339 335 344 330 309 303 298 286 291 281 260 263 257 244 249 250 215 207 169 89 90 89 83 70 66 67 59
113 104 100 92 78 61 48 46 31 31 26 13 15 32 29 212 347 356 6 354 337 315 311 309 315 295 287 272 269 265 254 245 232 216 214 170 111 83 74 71 72 66 57
107 103 96 87 78 67 58 55 42 26 23 11 357 353 346 338 21 23 5 354 337 336 335 322 316 296 288 289 291 289 271 253 238 221 215 193 146 107 90 71 70 68 66